Location: Unspecified
(51.5147°N, 7.4673°E)
Time: 00:26:52
(UTC+02:00)

Envisat - Visible Passes

Search period start: 27 March 2023 00:00
Search period end: 06 April 2023 00:00
Orbit: 763 x 765 km, 98.2° (Epoch: 26 March)

Date Brightness Start Highest point End Pass type
(mag) Time Alt. Az. Time Alt. Az. Time Alt. Az.
27 Mar 3.8 05:17:07 10° NNE 05:22:06 52° E 05:27:02 10° S visible
28 Mar 4.9 04:40:27 10° NE 04:44:44 27° E 04:49:00 10° SSE visible
28 Mar 3.2 06:19:05 10° N 06:24:01 52° WNW 06:28:55 10° SW visible
29 Mar 5.7 04:04:40 10° NE 04:07:10 14° E 04:09:39 10° ESE visible
29 Mar 3.1 05:41:52 10° NNE 05:46:59 82° ESE 05:52:04 10° SSW visible
30 Mar 4.2 05:04:56 10° NNE 05:09:46 42° E 05:14:33 10° SSE visible
31 Mar 5.2 04:28:27 10° NE 04:32:20 22° E 04:36:12 10° SE visible
31 Mar 3.0 06:06:44 10° N 06:11:47 64° WNW 06:16:48 10° SSW visible
01 Apr 5.9 03:53:40 10° ENE 03:54:42 11° E 03:55:42 10° E visible
01 Apr 3.4 05:29:36 10° NNE 05:34:41 66° ESE 05:39:44 10° S visible
02 Apr 4.6 04:52:47 10° NNE 04:57:24 33° E 05:01:58 10° SSE visible
02 Apr 3.5 06:31:43 10° N 06:36:30 41° WNW 06:41:13 10° SW visible
03 Apr 5.5 04:16:33 10° NE 04:19:54 17° E 04:23:14 10° SE visible
03 Apr 3.0 05:54:24 10° NNE 05:59:31 80° WNW 06:04:35 10° SSW visible
04 Apr 3.7 05:17:22 10° NNE 05:22:21 53° E 05:27:18 10° S visible
05 Apr 4.9 04:40:41 10° NE 04:45:00 27° E 04:49:17 10° SSE visible
05 Apr 3.3 06:19:20 10° N 06:24:15 51° WNW 06:29:10 10° SW visible
